Weather History for KSBN - November, 2014

Change the Weather History Date:

Monday, November 24, 2014

  Actual Average Record
Temperature  
Mean Temperature 41 °F 37 °F  
Max Temperature 52 °F 44 °F 65 °F (1973)
Min Temperature 29 °F 30 °F -6 °F (1950)
Degree Days  
Heating Degree Days 24 28  
Month to date heating degree days 712 550  
Since 1 July heating degree days 1245 1091  
Cooling Degree Days 0 0  
Month to date cooling degree days 0 0  
Year to date cooling degree days 771 773  
Moisture  
Dew Point 42 °F    
Average Humidity 89    
Maximum Humidity 100    
Minimum Humidity 78    
Precipitation  
Precipitation 0.52 in 0.11 in 0.64 in (1927)
Month to date precipitation 3.19 2.63  
Year to date precipitation 39.79 34.75  
Snow  
Snow T in 0.20 in 5.00 in (2004)
Month to date snowfall 16.9 3.2  
Since 1 July snowfall 17.1 3.6  
Since 1 September snowfall 17.1 3.6  
Snow Depth 0.00 in    
Sea Level Pressure  
Sea Level Pressure 29.32 in    
Wind  
Wind Speed 19 mph (SW)    
Max Wind Speed 37 mph    
Max Gust Speed 48 mph    
Visibility 6 miles    
Events Rain , Snow    
T = Trace of Precipitation, MM = Missing Value Source: NWS Daily Summary

Daily Weather History Graph

Daily Weather History Graph

Search for Another Location

Airport or City:

Trip Planner

Search our weather history database for the weather conditions in past years. The results will help you decide how hot, cold, wet, or windy it might be!

Date:

Astronomy

Nov. 24, 2014 Rise Set
Actual Time 7:45 AM EST 5:18 PM EST
Civil Twilight 7:14 AM EST 5:49 PM EST
Nautical Twilight 6:40 AM EST 6:23 PM EST
Astronomical Twilight 6:07 AM EST 6:56 PM EST
Moon 9:37 AM EST (11/24) 7:39 PM EST (11/24)
Length of Visible Light 10h 34m
Length of Day
9h 33m
Waxing Crescent, 6% of the Moon is Illuminated
Nov 24
Waxing Crescent
Nov 29
First Quarter
Dec 6
Full
Dec 14
Last Quarter
Dec 21
New

Hourly Weather History & Observations

Time (EST) Temp. Windchill Dew Point Humidity Pressure Visibility Wind Dir Wind Speed Gust Speed Precip Events Conditions
12:54 AM 50.0 °F - 48.9 °F 96% 29.10 in 3.0 mi SSE 3.5 mph - 0.07 in Rain Light Rain
1:05 AM 50.0 °F - 48.9 °F 96% 29.09 in 2.5 mi South 3.5 mph - 0.01 in Rain Light Rain
1:12 AM 50.0 °F - 48.9 °F 96% 29.09 in 3.0 mi South 3.5 mph - 0.02 in Rain Light Rain
1:21 AM 50.0 °F - 48.0 °F 93% 29.09 in 3.0 mi SSW 3.5 mph - 0.02 in Rain Light Rain
1:26 AM 50.0 °F - 48.9 °F 96% 29.09 in 2.5 mi SSW 3.5 mph - 0.03 in Rain Light Rain
1:45 AM 50.0 °F - 48.9 °F 96% 29.08 in 4.0 mi SSW 6.9 mph - 0.05 in Rain Light Rain
1:54 AM 51.1 °F - 48.9 °F 92% 29.09 in 6.0 mi SSW 9.2 mph - 0.06 in Rain Light Rain
2:11 AM 51.1 °F - 50.0 °F 96% 29.09 in 8.0 mi SW 15.0 mph - 0.00 in Rain Light Rain
2:44 AM 52.0 °F - 50.0 °F 93% 29.10 in 10.0 mi WSW 16.1 mph 24.2 mph 0.02 in Rain Light Rain
2:54 AM 52.0 °F - 50.0 °F 93% 29.10 in 9.0 mi SW 15.0 mph - 0.02 in Rain Light Rain
3:54 AM 51.1 °F - 48.9 °F 92% 29.12 in 10.0 mi SW 13.8 mph - 0.01 in Rain Light Rain
4:54 AM 51.1 °F - 48.9 °F 92% 29.12 in 5.0 mi SSW 10.4 mph - 0.06 in Rain Rain
5:31 AM 51.1 °F - 48.9 °F 92% 29.12 in 4.0 mi SSW 12.7 mph - 0.03 in   Overcast
5:54 AM 51.1 °F - 48.9 °F 92% 29.12 in 2.5 mi SSW 10.4 mph - 0.03 in Rain Light Rain
6:54 AM 51.1 °F - 50.0 °F 96% 29.11 in 2.5 mi South 9.2 mph - 0.01 in Rain Light Rain
7:01 AM 51.1 °F - 50.0 °F 96% 29.10 in 7.0 mi SSW 9.2 mph - 0.00 in Rain Light Rain
7:44 AM 51.1 °F - 50.0 °F 96% 29.10 in 9.0 mi SW 9.2 mph - 0.11 in Rain Light Rain
7:54 AM 51.1 °F - 50.0 °F 96% 29.10 in 10.0 mi SSW 6.9 mph - 0.11 in Rain Light Rain
8:14 AM 51.1 °F - 50.0 °F 96% 29.09 in 10.0 mi SSW 8.1 mph - 0.01 in Rain Light Rain
8:47 AM 51.1 °F - 51.1 °F 100% 29.09 in 1.8 mi WSW 6.9 mph - 0.01 in Rain Light Rain
8:54 AM 51.1 °F - 51.1 °F 100% 29.08 in 1.0 mi West 6.9 mph - 0.02 in Rain Light Rain
9:17 AM 52.0 °F - 51.1 °F 97% 29.08 in 2.5 mi SW 8.1 mph - 0.00 in   Overcast
9:51 AM 51.8 °F - 50.0 °F 94% 29.09 in 4.0 mi WSW 10.4 mph - 0.01 in Rain Light Rain
9:54 AM 51.1 °F - 50.0 °F 96% 29.09 in 4.0 mi WSW 12.7 mph - 0.01 in Rain Light Rain
10:48 AM 46.4 °F 37.9 °F 44.6 °F 93% 29.15 in 1.8 mi WSW 25.3 mph 41.4 mph 0.06 in Rain Rain
10:54 AM 46.0 °F 37.8 °F 44.1 °F 93% 29.17 in 2.5 mi SW 23.0 mph 35.7 mph 0.08 in Rain Rain
11:54 AM 37.9 °F 25.9 °F 37.9 °F 100% 29.27 in 2.5 mi SW 28.8 mph 46.0 mph 0.05 in Rain Light Rain
11:59 AM 37.9 °F 26.6 °F 37.9 °F 100% 29.27 in 4.0 mi SW 25.3 mph 46.0 mph 0.00 in Rain Light Rain
12:10 PM 37.0 °F 24.7 °F 37.0 °F 100% 29.28 in 4.0 mi SW 28.8 mph 46.0 mph 0.00 in Rain Light Rain
12:54 PM 35.1 °F 21.8 °F - N/A% 29.34 in 7.0 mi WSW 29.9 mph 41.4 mph 0.00 in   Overcast
1:21 PM 35.1 °F 21.6 °F - N/A% 29.36 in 5.0 mi WSW 31.1 mph 44.9 mph 0.00 in Snow Light Snow
1:54 PM 35.1 °F 22.0 °F - N/A% 29.40 in 10.0 mi WSW 28.8 mph 46.0 mph 0.00 in   Overcast
2:54 PM 35.6 °F 24.2 °F - N/A% 29.44 in 8.0 mi SW 21.9 mph 35.7 mph N/A Snow Light Snow
3:54 PM 34.0 °F 21.0 °F - N/A% 29.52 in 10.0 mi WSW 26.5 mph 41.4 mph 0.00 in   Overcast
4:17 PM 34.0 °F 21.8 °F - N/A% 29.52 in 10.0 mi WSW 23.0 mph 43.7 mph N/A   Overcast
4:54 PM 33.1 °F 19.6 °F - N/A% 29.56 in 10.0 mi WSW 27.6 mph 44.9 mph N/A   Overcast
5:47 PM 32.0 °F 18.9 °F - N/A% 29.59 in 10.0 mi SW 24.2 mph 36.8 mph 0.00 in   Overcast
5:54 PM 32.0 °F 18.6 °F - N/A% 29.61 in 10.0 mi SW 25.3 mph 35.7 mph 0.00 in   Overcast
6:54 PM 32.0 °F 17.9 °F 32.0 °F 100% 29.66 in 10.0 mi WSW 28.8 mph 41.4 mph N/A   Overcast
7:54 PM 30.9 °F 17.8 °F 28.9 °F 92% 29.69 in 10.0 mi WSW 23.0 mph 32.2 mph N/A   Overcast
8:54 PM 30.0 °F 16.3 °F 28.0 °F 92% 29.73 in 9.0 mi WSW 24.2 mph 38.0 mph 0.00 in   Overcast
9:49 PM 30.2 °F 17.8 °F 26.6 °F 86% 29.74 in 10.0 mi WSW 19.6 mph 33.4 mph N/A   Overcast
9:54 PM 30.0 °F 16.0 °F 27.0 °F 88% 29.76 in 10.0 mi WSW 25.3 mph 31.1 mph N/A   Overcast
10:54 PM 30.0 °F 16.0 °F 25.0 °F 82% 29.79 in 10.0 mi WSW 25.3 mph 35.7 mph N/A   Overcast
11:01 PM 30.0 °F 16.3 °F 26.1 °F 85% 29.77 in 9.0 mi WSW 24.2 mph 34.5 mph 0.00 in Snow Light Snow
11:32 PM 30.0 °F 16.6 °F 26.1 °F 85% 29.78 in 10.0 mi WSW 23.0 mph 29.9 mph 0.00 in Snow Light Snow
11:43 PM 28.9 °F 14.5 °F 25.0 °F 85% 29.78 in 10.0 mi WSW 25.3 mph 32.2 mph 0.00 in   Overcast
11:54 PM 28.9 °F 15.1 °F 25.0 °F 85% 29.81 in 9.0 mi WSW 23.0 mph 29.9 mph 0.00 in Snow Light Snow